Tracking 18840 objects as of 18-November-2017
HD Live streaming from Space Station
objects crossing your sky now

FENGYUN 1C DEB

Track FENGYUN 1C DEB now!
10-day predictions


NORAD ID: 41000
Int'l Code: 1999-025EXE
Perigee: 760.4 km
Apogee: 1,339.8 km
Inclination: 97.5 °
Period: 106.0 minutes
Semi major axis: 7421 km
RCS: Unknown
Launch date: May 10, 1999
Source: People's Republic of China (PRC)
Launch site: Taiyaun Space Center, China (TSC)

Note: This is SATELLITE DEBRIS
aabbcc
Your satellite tracking list
Your tracking list is empty




NASA's NSSDC Master Catalog

Two Line Element Set (TLE):
1 41000U 99025EXE 17317.27657386  .00001289  00000-0  11078-2 0  9992
2 41000  97.5289 140.5388 0390415  30.2629 332.0450 13.58001314441316
Source of the keplerian elements: AFSPC